[[{"header":{"parameterUnit":"m.s-1","parameterCategory":1,"la1":30.2991,"la2":30.254,"lo1":-89.0895,"lo2":-89.0444,"dy":0.0017,"dx":0.0017,"nx":28,"ny":28,"refTime":"2024-08-28T21:00:00:Z","depth":0,"parameterNumber":2,"parameterNumberName":"U-component_of_WINDS"},"data":[0,0,0,0,0,0,0,0,0,0,0,0,0,0,0,0,0,0,0,0,0,0,0,0,0,0,0,0,0,0,0,0,0,0,0,0,0,0,0,0,0,0,0,0,0,0,0,0,0,0,0,0,0,0,0,0,0,0,-4.2814,-4.2815,0,-4.2861,-4.2861,-4.2862,-4.2845,-4.2844,-4.2842,-4.2841,-4.2886,-4.2889,-4.2891,0,0,0,0,0,0,0,0,0,0,0,0,0,-4.2709,-4.2711,-4.2814,-4.2815,-4.2815,-4.286,-4.2861,-4.2862,-4.2845,-4.2843,-4.2842,-4.2841,-4.2886,-4.2888,-4.2891,0,0,0,0,0,0,0,0,0,0,0,0,0,-4.2755,-4.2712,-4.2814,-4.2812,-4.2813,-4.286,-4.2861,-4.2862,-4.2845,-4.2843,-4.2842,-4.284,-4.2885,-4.2888,-4.2891,-4.2943,0,0,-4.2901,-4.2903,0,0,0,0,0,0,0,0,-4.2752,-4.2759,-4.2812,-4.2812,-4.2813,-4.2845,-4.2841,-4.2889,-4.2845,-4.2833,-4.2841,-4.284,-4.2874,-4.2878,-4.289,-4.2945,-4.2947,-4.2901,-4.2903,-4.2905,-4.2906,0,0,0,0,0,0,0,-4.2749,-4.2757,-4.2832,-4.2813,-4.2813,-4.2809,-4.2814,-4.285,-4.2861,-4.2834,-4.2832,-4.2838,-4.2874,-4.2887,-4.2891,-4.2947,-4.2901,-4.2904,-4.2906,-4.2908,-4.3047,-4.3049,0,0,0,0,0,0,-4.2746,-4.2754,-4.2831,-4.2834,-4.2778,-4.2812,-4.2817,-4.2836,-4.2861,-4.2863,-4.284,-4.2837,-4.2882,-4.2887,-4.2892,-4.2954,-4.2905,-4.2908,-4.291,-4.3046,-4.3048,-4.305,0,0,0,0,0,0,-4.2744,-4.2753,-4.2829,-4.2794,-4.2803,-4.2815,-4.2837,-4.2838,-4.2851,-4.2866,-4.2867,-4.2851,-4.2881,-4.2888,-4.2931,-4.2955,-4.2909,-4.2912,-4.3044,-4.3046,-4.3049,-4.3077,0,0,0,0,0,0,-4.2741,-4.2753,-4.2772,-4.2794,-4.2805,-4.2867,-4.2839,-4.284,-4.2857,-4.2855,-4.2877,-4.2879,-4.288,-4.2926,-4.2934,-4.2959,-4.2915,-4.3041,-4.3045,-4.3048,-4.3074,-4.3081,-4.3086,0,0,0,0,0,-4.2737,-4.2778,-4.2773,-4.2783,-4.283,-4.2868,-4.2874,-4.2876,-4.2859,-4.2879,-4.2889,-4.2878,-4.2952,-4.293,-4.2939,-4.2966,-4.304,-4.3044,-4.3048,-4.3072,-4.3079,-4.3086,0,0,0,0,0,0,-4.2757,-4.278,-4.2776,-4.2825,-4.2845,-4.2865,-4.289,-4.2884,-4.2909,-4.2905,-4.2906,-4.2911,-4.2955,-4.2965,-4.294,-4.3017,-4.2993,-4.2999,-4.3008,-4.3016,-4.3022,-4.3017,-4.2918,0,0,0,0,0,-4.2767,-4.2797,-4.2816,-4.2857,-4.2867,-4.2877,-4.2894,-4.2894,-4.2914,-4.2922,-4.2935,-4.2954,-4.2982,-4.3,-4.3026,-4.3077,-4.3081,-4.3099,-4.3105,-4.311,-4.3115,-4.3142,-4.315,-4.3063,-4.3063,-4.3063,0,0,-4.2787,-4.2804,-4.2823,-4.2861,-4.2877,-4.2907,-4.2884,-4.2917,-4.2939,-4.2927,-4.2968,-4.2978,-4.3,-4.3047,-4.3069,-4.3057,-4.314,-4.3115,-4.3119,-4.3121,-4.3147,-4.3155,-4.3163,-4.3065,-4.3065,-4.3064,0,0,-4.284,-4.2857,-4.2893,-4.2909,-4.2934,-4.294,-4.2949,-4.2971,-4.2978,-4.302,-4.3012,-4.3038,-4.3086,-4.3102,-4.3116,-4.3178,-4.3169,-4.3187,-4.3217,-4.3244,-4.3251,-4.3257,-4.3278,-4.3286,-4.3192,-4.3192,-4.3192,0,-4.2862,-4.2908,-4.2912,-4.2945,-4.2963,-4.2955,-4.2992,-4.3007,-4.3039,-4.305,-4.3038,-4.3098,-4.3112,-4.3163,-4.3178,-4.3191,-4.32,-4.3183,-4.325,-4.3256,-4.3262,-4.3282,-4.329,-4.3194,-4.3194,-4.3193,-4.3193,0,-4.2934,-4.2966,-4.2992,-4.3024,-4.3044,-4.3079,-4.3088,-4.3108,-4.3107,-4.3115,-4.3158,-4.3176,-4.3206,-4.3218,-4.3217,-4.3269,-4.3261,-4.3249,-4.3225,-4.3272,-4.3291,-4.3298,-4.3196,-4.3196,-4.3195,-4.3195,0,0,-4.2997,-4.3032,-4.3042,-4.3056,-4.3084,-4.3108,-4.3143,-4.3174,-4.3191,-4.3214,-4.3242,-4.3284,-4.3274,-4.329,-4.3292,-4.3316,-4.3363,-4.3301,-4.3301,-4.331,-4.342,-4.3428,-4.3437,-4.3358,-4.336,-4.3361,-4.3418,0,-4.3051,-4.3113,-4.3118,-4.3173,-4.3203,-4.3198,-4.3228,-4.3248,-4.3258,-4.3284,-4.3294,-4.3323,-4.3308,-4.3318,-4.3341,-4.3352,-4.3384,-4.3348,-4.3384,-4.3385,-4.3376,-4.3447,-4.3454,-4.3507,-4.3426,-4.3427,-4.3428,0,-4.3121,-4.3147,-4.3206,-4.323,-4.3243,-4.327,-4.3299,-4.3324,-4.3347,-4.3353,-4.3372,-4.3371,-4.3407,-4.3383,-4.3433,-4.3408,-4.3423,-4.3431,-4.3433,-4.3435,-4.3408,-4.3448,-4.3524,-4.3531,-4.344,-4.3439,-4.3438,0,-4.316,-4.321,-4.3251,-4.3264,-4.3294,-4.3313,-4.3327,-4.3348,-4.3367,-4.3392,-4.3404,-4.3433,-4.3449,-4.3471,-4.3478,-4.346,-4.3527,-4.3504,-4.3531,-4.3531,-4.3543,-4.3542,-4.362,-4.3557,-4.3556,-4.3556,-4.3556,0,-4.3218,-4.3254,-4.3269,-4.3294,-4.3334,-4.3341,-4.338,-4.3393,-4.3413,-4.344,-4.3438,-4.3463,-4.3471,-4.3498,-4.3504,-4.3544,-4.3551,-4.3556,-4.3556,-4.3555,-4.3554,-4.3563,-4.3559,-4.3558,-4.3558,-4.3557,-4.3557,0,-4.3267,-4.3279,-4.3323,-4.3349,-4.3356,-4.3385,-4.3406,-4.3431,-4.3441,-4.3476,-4.3484,-4.3499,-4.3531,-4.3541,-4.3579,-4.3583,-4.3629,-4.3627,-4.3621,-4.3621,-4.3647,-4.3644,-4.3733,-4.3744,-4.3674,-4.3675,-4.3676,0,-4.3302,-4.333,-4.3359,-4.3378,-4.3392,-4.3422,-4.3441,-4.345,-4.3469,-4.3499,-4.352,-4.3552,-4.3578,-4.3629,-4.3643,-4.3673,-4.3671,-4.37,-4.3675,-4.3673,-4.3669,-4.3667,-4.3669,-4.3704,-4.3705,-4.3705,-4.3706,0,-4.3363,-4.3369,-4.3396,-4.3427,-4.3451,-4.3475,-4.3498,-4.3514,-4.3525,-4.3548,-4.3581,-4.3602,-4.3642,-4.3673,-4.3704,-4.3717,-4.3713,-4.3714,-4.3722,-4.3719,-4.3714,-4.3716,-4.3632,-4.3711,-4.3711,-4.371,-4.371,-4.371,-4.3406,-4.343,-4.3455,-4.3486,-4.3505,-4.3527,-4.3552,-4.3566,-4.3594,-4.3627,-4.3631,-4.3667,-4.369,-4.3731,-4.3746,-4.3774,-4.3766,-4.3777,-4.378,-4.3782,-4.3783,-4.3712,-4.378,-4.378,-4.378,-4.378,-4.378,0,-4.3466,-4.3482,-4.3511,-4.3544,-4.3569,-4.3566,-4.3592,-4.3613,-4.3645,-4.3668,-4.3694,-4.3732,-4.3764,-4.3781,-4.3813,-4.3832,-4.3831,-4.3839,-4.3837,-4.384,-4.379,-4.3779,-4.384,-4.384,-4.384,-4.384,-4.384,-4.3839,-4.35,-4.354,-4.3549,-4.3599,-4.3615,-4.3651,-4.3666,-4.3687,-4.3705,-4.3749,-4.3775,-4.3787,-4.3808,-4.3841,-4.3869,-4.3874,-4.3885,-4.3894,-4.3898,-4.385,-4.3843,-4.3837,-4.3828,-4.3897,-4.3897,-4.3945,-4.3946,-4.3946]},{"header":{"parameterUnit":"m.s-1","parameterCategory":1,"la1":30.2991,"la2":30.254,"lo1":-89.0895,"lo2":-89.0444,"dy":0.0017,"dx":0.0017,"nx":28,"ny":28,"refTime":"2024-08-28T21:00:00:Z","depth":0,"parameterNumber":3,"parameterNumberName":"V-component_of_WINDS"},"data":[0,0,0,0,0,0,0,0,0,0,0,0,0,0,0,0,0,0,0,0,0,0,0,0,0,0,0,0,0,0,0,0,0,0,0,0,0,0,0,0,0,0,0,0,0,0,0,0,0,0,0,0,0,0,0,0,0,0,3.9392,3.9392,0,3.9404,3.9404,3.9404,3.9408,3.9408,3.9408,3.9407,3.9417,3.9417,3.9418,0,0,0,0,0,0,0,0,0,0,0,0,0,3.9371,3.9372,3.9392,3.9392,3.9392,3.9404,3.9404,3.9404,3.9408,3.9408,3.9407,3.9407,3.9417,3.9417,3.9418,0,0,0,0,0,0,0,0,0,0,0,0,0,3.9381,3.9372,3.9392,3.9396,3.9396,3.9404,3.9404,3.9404,3.9408,3.9408,3.9407,3.9407,3.9417,3.9417,3.9418,3.9422,0,0,3.9419,3.9419,0,0,0,0,0,0,0,0,3.9381,3.9382,3.9395,3.9395,3.9396,3.9404,3.94,3.941,3.9408,3.9403,3.9407,3.9407,3.9413,3.9414,3.9416,3.9423,3.9423,3.9419,3.9419,3.942,3.942,0,0,0,0,0,0,0,3.938,3.9382,3.9397,3.9395,3.9396,3.9396,3.9397,3.9402,3.9408,3.9404,3.9404,3.9405,3.9413,3.9415,3.9416,3.9423,3.9419,3.942,3.942,3.942,3.9436,3.9436,0,0,0,0,0,0,3.9379,3.9381,3.9396,3.9397,3.9388,3.9397,3.9398,3.9402,3.9408,3.9409,3.9405,3.9405,3.9415,3.9416,3.9416,3.9423,3.942,3.942,3.942,3.9436,3.9436,3.9436,0,0,0,0,0,0,3.9379,3.938,3.9396,3.9389,3.9391,3.9397,3.9401,3.9402,3.9404,3.941,3.941,3.9407,3.9415,3.9416,3.9421,3.9423,3.942,3.9421,3.9435,3.9436,3.9436,3.9435,0,0,0,0,0,0,3.9378,3.938,3.9382,3.9389,3.9392,3.9401,3.9401,3.9402,3.9405,3.9406,3.9411,3.9412,3.9415,3.9421,3.9422,3.9424,3.9421,3.9435,3.9435,3.9436,3.9435,3.9435,3.9436,0,0,0,0,0,3.9377,3.9381,3.9382,3.9384,3.9394,3.9401,3.9402,3.9406,3.9406,3.9408,3.9411,3.9412,3.9423,3.9421,3.9422,3.9425,3.9435,3.9435,3.9436,3.9435,3.9435,3.9436,0,0,0,0,0,0,3.9372,3.9382,3.9383,3.9389,3.9395,3.9402,3.9404,3.9406,3.9411,3.941,3.9414,3.9415,3.9421,3.9423,3.9421,3.943,3.9429,3.943,3.9428,3.9428,3.9429,3.9428,3.9421,0,0,0,0,0,3.9372,3.9378,3.9385,3.939,3.9392,3.9398,3.9401,3.9404,3.9409,3.941,3.9414,3.9419,3.9423,3.9426,3.943,3.9436,3.9437,3.9438,3.9438,3.9438,3.9439,3.9442,3.9443,3.9437,3.9437,3.9437,0,0,3.9371,3.9377,3.938,3.9389,3.9393,3.9398,3.9399,3.9404,3.9408,3.9411,3.9417,3.942,3.9425,3.9431,3.9433,3.9433,3.9441,3.9439,3.9439,3.9439,3.9443,3.9443,3.9444,3.9437,3.9437,3.9437,0,0,3.9373,3.9378,3.9383,3.9387,3.9394,3.9398,3.94,3.9407,3.9409,3.9415,3.9418,3.9422,3.943,3.9434,3.9436,3.9441,3.9442,3.9443,3.9444,3.9447,3.9448,3.9448,3.945,3.9451,3.9443,3.9443,3.9443,0,3.9371,3.9379,3.9385,3.939,3.9394,3.9398,3.9403,3.9407,3.9415,3.9417,3.9417,3.9428,3.9431,3.9438,3.944,3.9442,3.9443,3.9441,3.9447,3.9448,3.9448,3.945,3.9451,3.9443,3.9443,3.9443,3.9443,0,3.9377,3.9383,3.9386,3.9394,3.9399,3.9404,3.941,3.9413,3.9416,3.942,3.9426,3.9431,3.9437,3.9439,3.9441,3.9447,3.9446,3.9447,3.9446,3.9449,3.9451,3.9451,3.9443,3.9443,3.9443,3.9443,0,0,3.9374,3.9387,3.9388,3.9393,3.9401,3.9406,3.9411,3.9418,3.9421,3.9427,3.9432,3.9439,3.944,3.9443,3.9446,3.9449,3.9453,3.9449,3.9449,3.945,3.946,3.9459,3.946,3.9454,3.9454,3.9454,3.9459,0,3.9376,3.9387,3.9393,3.9401,3.9407,3.9412,3.9417,3.9423,3.9427,3.9432,3.9436,3.9441,3.9442,3.9444,3.9448,3.9452,3.9455,3.9452,3.9458,3.9458,3.9456,3.9461,3.946,3.9465,3.946,3.946,3.946,0,3.938,3.9388,3.9397,3.9406,3.9409,3.9413,3.9421,3.9426,3.9432,3.9435,3.944,3.9443,3.9449,3.9448,3.9456,3.9454,3.9457,3.946,3.946,3.946,3.9459,3.9461,3.9466,3.9467,3.9461,3.9461,3.9461,0,3.9378,3.939,3.9397,3.9401,3.9412,3.9415,3.9419,3.9426,3.943,3.9437,3.944,3.9446,3.9449,3.9454,3.9459,3.9458,3.9467,3.9466,3.9469,3.9469,3.947,3.947,3.9475,3.9473,3.9473,3.9473,3.9473,0,3.938,3.9386,3.9396,3.9401,3.9407,3.9414,3.942,3.9425,3.9431,3.9436,3.944,3.9445,3.9451,3.9457,3.946,3.9467,3.9468,3.947,3.9471,3.947,3.947,3.9471,3.9471,3.9473,3.9473,3.9473,3.9473,0,3.9378,3.9385,3.9394,3.9404,3.9407,3.9411,3.942,3.9424,3.9429,3.9436,3.9438,3.9445,3.9452,3.9458,3.9466,3.9469,3.9475,3.9476,3.9473,3.9474,3.9476,3.9476,3.9483,3.9484,3.948,3.948,3.948,0,3.9379,3.9383,3.9395,3.9399,3.9404,3.9411,3.9416,3.9423,3.9428,3.9437,3.944,3.9447,3.9453,3.9464,3.947,3.9476,3.9477,3.948,3.9478,3.9477,3.9477,3.9477,3.9478,3.9479,3.9479,3.9479,3.9479,0,3.9379,3.9383,3.939,3.9399,3.9405,3.9412,3.9419,3.9423,3.9431,3.9436,3.9444,3.9448,3.9458,3.9465,3.9473,3.9477,3.9479,3.948,3.9481,3.9479,3.9477,3.9479,3.9473,3.948,3.948,3.948,3.9479,3.9479,3.9379,3.9383,3.9393,3.9401,3.9407,3.9414,3.9419,3.9426,3.9432,3.9441,3.9445,3.9453,3.946,3.9471,3.9475,3.9481,3.9481,3.9483,3.9483,3.9483,3.9483,3.9477,3.9483,3.9483,3.9483,3.9483,3.9483,0,3.938,3.9386,3.9394,3.9404,3.9411,3.9414,3.9423,3.9428,3.9435,3.9442,3.9449,3.9458,3.9465,3.9472,3.948,3.9483,3.9485,3.9485,3.9485,3.9486,3.9483,3.9481,3.9484,3.9484,3.9484,3.9484,3.9484,3.9484,3.9381,3.9389,3.9395,3.9406,3.9413,3.9421,3.9426,3.9432,3.9438,3.9449,3.9455,3.946,3.9467,3.9476,3.9483,3.9485,3.9487,3.9487,3.9489,3.9486,3.9486,3.9486,3.9484,3.9488,3.9488,3.9492,3.9492,3.9492]}]]